YB2NDX-15 Weather Reports


Display with metric or nautical units.
time (UTC)temp
F
wind
direction
speed
MPH
gust
MPH
rain 1hr
in
rain 24hr
in
rain mn
in
humidity
%
barometer
mb
20260502170255 81 0.0 0.0 0.00 0.00 0.00 1008.8
20260502164242 82 0.0 0.0 0.00 0.00 0.00 1009.0
20260502163235 82 0.0 0.0 0.00 0.00 0.00 1008.9
20260502162229 82 0.0 0.0 0.00 0.00 0.00 1008.9
20260502161222 82 0.0 0.0 0.00 0.00 0.00 1008.9
20260502160216 82 0.0 0.0 0.00 0.00 0.00 1009.0
20260502150136 83 0.0 0.0 0.00 0.00 0.00 1008.9
20260502122749 85 0.0 0.0 0.00 0.00 0.00 1007.9
20260502121743 85 0.0 0.0 0.00 0.00 0.00 1007.6
20260502120734 85 0.0 0.0 0.00 0.00 0.00 1007.4
20260502115728 85 0.0 0.0 0.00 0.00 0.00 1007.3
20260502114721 85 0.0 0.0 0.00 0.00 0.00 1007.2
20260502113715 86 0.0 0.0 0.00 0.00 0.00 1007.0
20260502112708 86 0.0 0.0 0.00 0.00 0.00 1006.9
20260502111701 86 0.0 0.0 0.00 0.00 0.00 1006.7
20260502110653 86 0.0 0.0 0.00 0.00 0.00 1006.5
20260502105647 86 0.0 0.0 0.00 0.00 0.00 1006.5
20260502104640 86 0.0 0.0 0.00 0.00 0.00 1006.4
20260502103634 87 0.0 0.0 0.00 0.00 0.00 1006.4
20260502100614 88 0.0 0.0 0.00 0.00 0.00 1006.2
20260502090536 89 0.0 0.0 0.00 0.00 0.00 1005.7
20260502071422 94 0.0 0.0 0.00 0.00 0.00 1005.4
20260502070415 94 0.0 0.0 0.00 0.00 0.00 1005.5
20260502065409 95 0.0 0.0 0.00 0.00 0.00 1005.7
20260502064403 94 0.0 0.0 0.00 0.00 0.00 1006.0
20260502063356 94 0.0 0.0 0.00 0.00 0.00 1006.2
20260502062350 94 0.0 0.0 0.00 0.00 0.00 1006.5
20260502060337 94 0.0 0.0 0.00 0.00 0.00 1006.9
20260502054324 91 0.0 0.0 0.00 0.00 0.00 1007.1
20260502053318 90 0.0 0.0 0.00 0.00 0.00 1007.2
20260502052311 89 0.0 0.0 0.00 0.00 0.00 1007.3
20260502051305 89 0.0 0.0 0.00 0.00 0.00 1007.5
20260502050258 90 0.0 0.0 0.00 0.00 0.00 1007.6
20260502045251 91 0.0 0.0 0.00 0.00 0.00 1007.6
20260502044244 91 0.0 0.0 0.00 0.00 0.00 1007.7
20260502043238 92 0.0 0.0 0.00 0.00 0.00 1007.9
20260502042231 93 0.0 0.0 0.00 0.00 0.00 1008.0
20260502041224 92 0.0 0.0 0.00 0.00 0.00 1008.2
20260502035211 94 0.0 0.0 0.00 0.00 0.00 1008.4
20260502034204 94 0.0 0.0 0.00 0.00 0.00 1008.5
20260502033157 94 0.0 0.0 0.00 0.00 0.00 1008.8
20260502032151 93 0.0 0.0 0.00 0.00 0.00 1008.9
20260502031144 92 0.0 0.0 0.00 0.00 0.00 1009.1
20260502025131 91 0.0 0.0 0.00 0.00 0.00 1009.3
20260502024124 91 0.0 0.0 0.00 0.00 0.00 1009.2
20260502023118 90 0.0 0.0 0.00 0.00 0.00 1009.3
20260502022111 90 0.0 0.0 0.00 0.00 0.00 1009.4
20260502021104 90 0.0 0.0 0.00 0.00 0.00 1009.4
20260502020058 89 0.0 0.0 0.00 0.00 0.00 1009.5
20260502015051 88 0.0 0.0 0.00 0.00 0.00 1009.4
20260502014045 88 0.0 0.0 0.00 0.00 0.00 1009.3
20260502013038 88 0.0 0.0 0.00 0.00 0.00 1009.2
20260502011025 87 0.0 0.0 0.00 0.00 0.00 1009.1
20260502010018 86 0.0 0.0 0.00 0.00 0.00 1009.0
20260502005011 86 0.0 0.0 0.00 0.00 0.00 1008.9
20260502002959 84 0.0 0.0 0.00 0.00 0.00 1008.8
20260502001952 84 0.0 0.0 0.00 0.00 0.00 1008.6
20260502000945 83 0.0 0.0 0.00 0.00 0.00 1008.6
20260501235939 82 0.0 0.0 0.00 0.00 0.00 1008.6
20260501234932 81 0.0 0.0 0.00 0.00 0.00 1008.5
20260501233926 81 0.0 0.0 0.00 0.00 0.00 1008.3
20260501232920 80 0.0 0.0 0.00 0.00 0.00 1008.2
20260501231913 79 0.0 0.0 0.00 0.00 0.00 1008.0
20260501230907 79 0.0 0.0 0.00 0.00 0.00 1008.1
20260501225900 79 0.0 0.0 0.00 0.00 0.00 1008.0
20260501224854 79 0.0 0.0 0.00 0.00 0.00 1007.9
20260501223847 79 0.0 0.0 0.00 0.00 0.00 1008.1
20260501222841 79 0.0 0.0 0.00 0.00 0.00 1007.8
20260501221834 79 0.0 0.0 0.00 0.00 0.00 1007.7
20260501220828 79 0.0 0.0 0.00 0.00 0.00 1007.6
20260501215822 79 0.0 0.0 0.00 0.00 0.00 1007.5
20260501214815 79 0.0 0.0 0.00 0.00 0.00 1007.4
20260501213809 79 0.0 0.0 0.00 0.00 0.00 1007.4
20260501211756 80 0.0 0.0 0.00 0.00 0.00 1007.5
20260501205742 80 0.0 0.0 0.00 0.00 0.00 1007.4
20260501204736 80 0.0 0.0 0.00 0.00 0.00 1007.2
20260501202723 80 0.0 0.0 0.00 0.00 0.00 1007.5
20260501201715 80 0.0 0.0 0.00 0.00 0.00 1007.6
20260501200709 80 0.0 0.0 0.00 0.00 0.00 1007.5
20260501195703 80 0.0 0.0 0.00 0.00 0.00 1007.6
20260501194656 80 0.0 0.0 0.00 0.00 0.00 1007.6
20260501193650 80 0.0 0.0 0.00 0.00 0.00 1007.5
20260501192643 80 0.0 0.0 0.00 0.00 0.00 1007.5
20260501191637 80 0.0 0.0 0.00 0.00 0.00 1007.5
20260501190631 80 0.0 0.0 0.00 0.00 0.00 1007.6
20260501185624 81 0.0 0.0 0.00 0.00 0.00 1007.6
20260501184617 81 0.0 0.0 0.00 0.00 0.00 1007.7
20260501183611 81 0.0 0.0 0.00 0.00 0.00 1007.8
20260501182605 81 0.0 0.0 0.00 0.00 0.00 1007.8
20260501180552 81 0.0 0.0 0.00 0.00 0.00 1008.0
20260501175545 81 0.0 0.0 0.00 0.00 0.00 1008.2
20260501174539 81 0.0 0.0 0.00 0.00 0.00 1008.4
20260501173532 81 0.0 0.0 0.00 0.00 0.00 1008.5
20260501172526 81 0.0 0.0 0.00 0.00 0.00 1008.7
20260501171519 81 0.0 0.0 0.00 0.00 0.00 1008.7